Location: Moscow Pond
(43.6842°N, 73.2366°W)
Time: 03:17:36
(UTC+00:00)

ADEOS Rocket - Pass Details

Date: 08 November 2025
Orbit: 858 x 1304 km, 98.7° (Epoch: 04 December)

Event Time Altitude Azimuth Distance (km) Brightness Sun altitude
Rises 07:53:09 0° 16° (NNE) 3,797 6.4 -40.7°
Reaches altitude 10° 07:55:36 10° 20° (NNE) 2,900 5.8 -40.2°
Enters shadow 07:59:31 38° 36° (NE) 1,637 4.3 -39.6°
